{"data":{"norad_id":57341,"epoch":"2026-09-20T07:44:47.380704Z","epoch_age_seconds":139504,"freshness":"FRESH","line1":"1 57341U 23099P   26263.32277061  .00001297  00000+0  56643-4 0  9996","line2":"2 57341  43.0039 236.5750 0001470 275.9178  84.1506 15.27578612175809","mean_motion":15.27578612,"eccentricity":0.000147,"inclination_deg":43.0039,"raan_deg":236.575,"arg_perigee_deg":275.9178,"mean_anomaly_deg":84.1506,"bstar":5.6643e-5,"rev_number":17580,"period_min":94.266834367016,"perigee_km":482.04465724705,"apogee_km":484.0618471812,"semimajor_km":6861.1902522141,"source":"CELESTRAK","updated_at":"2026-09-21T09:00:33.598516Z"}}